Location: Aufkirchen
(47.9603°N, 11.3653°E)
Time: 13:53:01
(UTC+01:00)

Transit 2A Rocket - Pass Details

Date: 09 December 2020
Orbit: 592 x 910 km, 66.7° (Epoch: 21 January)

Event Time Altitude Azimuth Distance (km) Brightness Sun altitude
Rises 00:47:04 0° 233° (SW) 3,477 - -63.6°
Reaches altitude 10° 00:49:44 10° 239° (WSW) 2,509 - -63.5°
Maximum altitude 00:55:19 46° 312° (NW) 1,093 - -63.1°
Drops below altitude 10° 01:00:31 10° 26° (NNE) 2,333 - -62.7°
Sets 01:02:55 0° 33° (NNE) 3,210 - -62.5°
